Fairbanks Eiels, AK

1:10 PM AKDT on May 29, 2017 (GMT -0800)
Eielson Air Force Base

Weather History for PAEI - January, 2014

Change the Weather History Date:

Wednesday, January 15, 2014

  Actual Average Record
Temperature  
Mean Temperature -6 °F -  
Max Temperature 2 °F -4 °F 50 °F (2009)
Min Temperature -13 °F -19 °F -52 °F (1951)
Degree Days  
Heating Degree Days 71    
Moisture  
Dew Point -9 °F    
Average Humidity 81    
Maximum Humidity 85    
Minimum Humidity 76    
Precipitation  
Precipitation 0.00 in - - ()
Sea Level Pressure  
Sea Level Pressure 29.73 in    
Wind  
Wind Speed 3 mph (NE)    
Max Wind Speed 6 mph    
Max Gust Speed -    
Visibility 8 miles    
Events Snow    
Averages and records for this station are not official NWS values.
T = Trace of Precipitation, MM = Missing Value Source: NWS Daily Summary

Daily Weather History Graph

Daily Weather History Graph

Search for Another Location

Airport or City:

Trip Planner

Search our weather history database for the weather conditions in past years. The results will help you decide how hot, cold, wet, or windy it might be!

Date:

Astronomy

Jan. 15, 2014 Rise Set
Actual Time 10:21 AM AKST 3:35 PM AKST
Civil Twilight 9:11 AM AKST 4:45 PM AKST
Nautical Twilight 8:05 AM AKST 5:50 PM AKST
Astronomical Twilight 7:06 AM AKST 6:49 PM AKST
Moon 4:14 PM AKST (1/15) 9:14 AM AKST (1/15)
Length of Visible Light 7h 33m
Length of Day
5h 13m
Full, 100% of the Moon is Illuminated
Jan 15
Full
Jan 15
Full
Jan 23
Last Quarter
Jan 30
New
Feb 6
First Quarter

Hourly Weather History & Observations

Time (AKST) Temp. Windchill Dew Point Humidity Pressure Visibility Wind Dir Wind Speed Gust Speed Precip Events Conditions
12:28 AM -5.8 °F - -9.4 °F 84% 29.57 in 5.0 mi Variable 1.2 mph - N/A Snow Light Snow
12:43 AM -4.0 °F - -9.4 °F 78% 29.59 in 4.0 mi Variable 2.3 mph - N/A Snow Light Snow
12:58 AM -4.4 °F -12.8 °F -9.0 °F 80% 29.66 in 4.0 mi Variable 3.5 mph - 0.00 in Snow Light Snow
1:11 AM -4.0 °F -14.6 °F -9.4 °F 78% 29.61 in 4.0 mi ESE 4.6 mph - N/A Snow Light Snow
1:26 AM -4.0 °F -14.6 °F -9.4 °F 78% 29.62 in 3.0 mi Variable 4.6 mph - N/A Snow Light Snow
1:56 AM -4.0 °F -12.4 °F -7.6 °F 85% 29.63 in 7.0 mi Variable 3.5 mph - N/A Snow Light Snow
1:58 AM -3.6 °F -12.0 °F -8.3 °F 80% 29.69 in 7.0 mi Variable 3.5 mph - 0.00 in Snow Light Snow
2:13 AM -4.0 °F -14.6 °F -7.6 °F 85% 29.65 in 8.0 mi Variable 4.6 mph - N/A Snow Light Snow
2:28 AM -4.0 °F -16.3 °F -7.6 °F 85% 29.65 in 10.0 mi Variable 5.8 mph - N/A   Overcast
2:43 AM -4.0 °F -14.6 °F -7.6 °F 85% 29.66 in 10.0 mi Variable 4.6 mph - N/A   Overcast
2:58 AM -2.9 °F -13.3 °F -7.6 °F 80% 29.72 in 10.0 mi Variable 4.6 mph - 0.00 in   Overcast
3:43 AM -2.2 °F - -7.6 °F 78% 29.68 in 10.0 mi Calm Calm - N/A   Overcast
3:58 AM -2.0 °F - -6.5 °F 81% 29.75 in 10.0 mi Calm Calm - N/A   Mostly Cloudy
4:13 AM -2.2 °F - -5.8 °F 85% 29.69 in 9.0 mi NE 1.2 mph - N/A Snow Light Snow
4:28 AM -2.2 °F - -5.8 °F 85% 29.70 in 7.0 mi Calm Calm - N/A Snow Light Snow
4:43 AM -2.2 °F -10.4 °F -5.8 °F 85% 29.70 in 3.0 mi NNE 3.5 mph - N/A Snow Light Snow
4:58 AM -1.8 °F -13.7 °F -6.2 °F 82% 29.76 in 2.0 mi North 5.8 mph - 0.00 in Snow Light Snow
5:13 AM -2.2 °F -12.5 °F -5.8 °F 85% 29.71 in 3.0 mi North 4.6 mph - N/A Snow Light Snow
5:28 AM -2.2 °F -12.5 °F -5.8 °F 85% 29.71 in 2.5 mi North 4.6 mph - N/A Snow Light Snow
5:43 AM -2.2 °F -14.2 °F -5.8 °F 85% 29.72 in 3.0 mi North 5.8 mph - N/A Snow Light Snow
5:58 AM -2.2 °F -14.2 °F -6.9 °F 80% 29.78 in 6.0 mi North 5.8 mph - 0.00 in Snow Light Snow
6:13 AM -4.0 °F -16.3 °F -7.6 °F 85% 29.72 in 7.0 mi North 5.8 mph - N/A Snow Light Snow
6:24 AM -4.0 °F -16.3 °F -7.6 °F 85% 29.73 in 9.0 mi North 5.8 mph - N/A Snow Light Snow
6:39 AM -4.0 °F -14.6 °F -9.4 °F 78% 29.73 in 7.0 mi North 4.6 mph - N/A Snow Light Snow
6:54 AM -4.0 °F -12.4 °F -9.4 °F 78% 29.73 in 10.0 mi North 3.5 mph - N/A   Overcast
6:58 AM -4.9 °F - -9.8 °F 80% 29.78 in 10.0 mi North 2.3 mph - 0.00 in   Overcast
7:13 AM -4.0 °F -12.4 °F -9.4 °F 78% 29.73 in 10.0 mi North 3.5 mph - N/A   Mostly Cloudy
7:28 AM -4.0 °F -16.3 °F -9.4 °F 78% 29.73 in 9.0 mi North 5.8 mph - N/A Snow Light Snow
7:58 AM -3.8 °F -14.4 °F -8.5 °F 80% 29.79 in 10.0 mi Variable 4.6 mph - 0.00 in   Overcast
8:13 AM -4.0 °F - -7.6 °F 85% 29.73 in 10.0 mi Variable 1.2 mph - N/A   Mostly Cloudy
8:28 AM -4.0 °F - -7.6 °F 85% 29.75 in 10.0 mi North 1.2 mph - N/A   Scattered Clouds
8:58 AM -3.8 °F - -8.5 °F 80% 29.82 in 10.0 mi Calm Calm - N/A   Scattered Clouds
9:28 AM -7.6 °F - -13.0 °F 77% 29.77 in 10.0 mi Calm Calm - N/A   Mostly Cloudy
9:58 AM -9.8 °F - -15.0 °F 78% 29.85 in 10.0 mi SSE 2.3 mph - N/A   Scattered Clouds
10:20 AM -9.4 °F - -14.8 °F 77% 29.78 in 9.0 mi ESE 1.2 mph - N/A   Scattered Clouds
10:58 AM -10.3 °F - -15.3 °F 78% 29.85 in 9.0 mi SSE 2.3 mph - N/A   Partly Cloudy
11:58 AM -13.0 °F - -18.2 °F 77% 29.85 in 10.0 mi Calm Calm - N/A   Clear
12:58 PM -13.9 °F - -19.5 °F 76% 29.85 in 9.0 mi Calm Calm - N/A   Clear
1:28 PM -13.0 °F - -18.4 °F 77% 29.78 in 5.0 mi Calm Calm - N/A   Haze
1:43 PM -11.2 °F - -16.6 °F 77% 29.77 in 10.0 mi Calm Calm - N/A   Clear
1:58 PM -10.8 °F - -16.2 °F 77% 29.83 in 10.0 mi Calm Calm - N/A   Scattered Clouds
2:58 PM -8.3 °F - -13.5 °F 78% 29.82 in 10.0 mi SSE 2.3 mph - N/A   Clear
3:58 PM -8.1 °F - -13.2 °F 79% 29.82 in 10.0 mi Calm Calm - N/A   Scattered Clouds
4:58 PM -6.9 °F - -11.7 °F 79% 29.81 in 10.0 mi SSE 1.2 mph - N/A   Overcast
5:58 PM -6.3 °F - -11.2 °F 79% 29.80 in 10.0 mi Calm Calm - N/A   Overcast
6:58 PM -6.5 °F - -11.7 °F 78% 29.77 in 10.0 mi Calm Calm - 0.00 in   Mostly Cloudy
7:58 PM -6.3 °F - -11.2 °F 79% 29.76 in 10.0 mi South 2.3 mph - N/A   Mostly Cloudy
8:58 PM -5.8 °F - -10.7 °F 79% 29.74 in 10.0 mi Calm Calm - N/A   Scattered Clouds
9:58 PM -2.7 °F - -7.6 °F 80% 29.72 in 10.0 mi Calm Calm - N/A   Partly Cloudy
10:58 PM -0.0 °F - -4.5 °F 81% 29.69 in 10.0 mi Calm Calm - N/A Snow Light Snow
11:13 PM 1.4 °F - -4.0 °F 78% 29.63 in 5.0 mi Calm Calm - N/A Snow Light Snow
11:28 PM 1.4 °F - -2.2 °F 85% 29.62 in 5.0 mi Calm Calm - N/A Snow Light Snow
11:43 PM 1.4 °F - -2.2 °F 85% 29.62 in 6.0 mi Calm Calm - N/A Snow Light Snow
11:58 PM 2.3 °F - -1.8 °F 83% 29.67 in 10.0 mi Calm Calm - 0.00 in   Scattered Clouds